Tracking 25710 objects as of 7-Jul-2022
HD Live streaming from Space Station
objects crossing your sky now

FENGYUN 1C DEB

Track FENGYUN 1C DEB now!
10-day predictions


NORAD ID: 37011
Int'l Code: 1999-025ECT
Perigee: 649.5 km
Apogee: 729.5 km
Inclination: 98.9 °
Period: 98.4 minutes
Semi major axis: 7060 km
RCS: 0.002 m2 (small)
Launch date: May 10, 1999
Source: People's Republic of China (PRC)
Launch site: Taiyaun Space Center, China (TSC)

Note: This is SATELLITE DEBRIS
aabbcc
Your satellite tracking list
Your tracking list is empty




NASA's NSSDC Master Catalog

Two Line Element Set (TLE):
1 37011U 99025ECT 22187.36152107  .00005774  00000-0  11024-2 0  9995
2 37011  98.9097 149.2659 0056638 156.2268 204.1567 14.63348117530517
Source of the keplerian elements: AFSPC